Regional Weather Roundup
Issued by NWS

Home | Current Version | Previous Version | Text Only | Print | Product List | Glossary Off
Versions: 1 2 3 4 5 6 7 8 9 10 11 12 13 14 15 16 17 18 19 20 21 22 23 24 25 26 27

000
ASUS45 KCYS 280910
RWRWY

WYOMING REGIONAL WEATHER ROUNDUP
NATIONAL WEATHER SERVICE CHEYENNE WY
300 AM MDT SAT MAY 28 2016

NOTE:  "FAIR" INDICATES FEW OR NO CLOUDS BELOW 12,000 FEET
WITH NO SIGNIFICANT WEATHER AND/OR OBSTRUCTIONS TO VISIBILITY.

WYZ001-281000-
YELLOWSTONE NATIONAL PARK

CITY           SKY/WX    TMP DP  RH WIND       PRES   REMARKS
LK YELLOWSTONE   N/A     33  31  92 CALM      30.06S
W YELLOWSTONE  NOT AVBL

$$
WYZ002>013-054>058-071-098>099-281000-
NORTHERN WYOMING

CITY           SKY/WX    TMP DP  RH WIND       PRES   REMARKS
JACKSON        FAIR      39  34  81 CALM      30.02S
CODY           FAIR      45  43  93 NE3       29.96S
GREYBULL       MOCLDY    52  48  86 CALM      29.93R
WORLAND        CLOUDY    51  48  89 W5        29.93R
SHERIDAN       CLOUDY    48  45  89 SW6       29.90S
BUFFALO        CLOUDY    50  43  77 S10       29.93S
GILLETTE       CLOUDY    48  45  89 W6        29.91R
HULETT         FAIR      45  41  87 SW5       29.91S
NEWCASTLE      FAIR      43  37  81 NE6       29.91S

$$
WYZ014>020-022>026-101>103-281000-
CENTRAL WYOMING

CITY           SKY/WX    TMP DP  RH WIND       PRES   REMARKS
BIG PINEY      CLOUDY    40  37  89 CALM      30.04S
PINEDALE       FAIR      34  32  93 NE7       30.05S WCI  28
DUBOIS         PTSUNNY   39  30  70 W6        30.00S WCI  35
LANDER         FAIR      44  33  65 W6        29.94R
RIVERTON       FAIR      43  38  82 N6        29.94S
CASPER         FAIR      40  36  86 NW7       29.96R
DOUGLAS          N/A    N/A N/A N/A MISG      29.94R

$$
WYZ021-027>030-104>119-281000-
SOUTHERN WYOMING

CITY           SKY/WX    TMP DP  RH WIND       PRES   REMARKS
EVANSTON       CLOUDY    41  34  76 SW6       30.06R
KEMMERER         N/A     41  34  75 W6        30.05F
FORT BRIDGER   SUNNY     41  37  87 W7        30.08S
ROCK SPRINGS   FAIR      42  35  76 W12       30.03R
DIXON          FAIR      40  37  87 NE3       30.07S
RAWLINS        FAIR      44  36  73 SW12      30.01S
SARATOGA       FAIR      39  36  87 SE9       30.04S WCI  33
LARAMIE        FAIR      34  31  88 SW5       30.01R WCI  30
CHEYENNE       FAIR      42  35  76 NW7       29.97R
TORRINGTON     FAIR      40  40 100 NE6       29.90S FOG
PINE BLUFFS    CLOUDY    37  37 100 CALM      29.95R

$$




USA.gov is the U.S. government's official web portal to all federal, state and local government web resources and services.